Powrót do katalogu

FENGYUN 1C DEB

AktywnySSO
NORAD 31365·DEBRIS·🇨🇳 China

Wystrzelony May 10, 1999 z Taiyuan Satellite Launch Center

Loading…

Następne Przeloty (najbliższe 24 godziny)

TLE

ŚwieżeSource: Space-Track

Epoka: Sep 13, 2026, 22:55 UTC

1 31365U 99025BRV 26256.95537179  .00003925  00000-0  11311-2 0  9998
2 31365  98.6694 351.9692 0041208 117.8520 242.6855 14.44784223  5899

Śledź FENGYUN 1C DEB w czasie rzeczywistym z AllMySat

Download on the App Store